Location: Grange Verzio
(44.5000°N, 6.9833°E)
Time: 18:28:23
(UTC+00:00)

Cosmos 2219 Rocket - Pass Details

Date: 26 September 2023
Orbit: 826 x 848 km, 71.0° (Epoch: 08 December)

Event Time Altitude Azimuth Distance (km) Brightness Sun altitude
Rises 19:55:10 0° 242° (WSW) 3,356 5.8 -27.1°
Reaches altitude 10° 19:58:03 10° 256° (WSW) 2,428 5.2 -27.5°
Maximum altitude 20:02:31 24° 310° (NW) 1,643 4.3 -28.2°
Drops below altitude 10° 20:07:02 10° 4° (N) 2,446 4.9 -28.9°
Sets 20:09:58 0° 18° (NNE) 3,387 5.5 -29.4°
